CAPE
0 0 0 0 0 0 0 0 0 0 0 0 2 175 403 761 541 359 431 593 763 877 1249 1231 609 47 7 0 0 0 11 0 0 0 10 68 125 160 80 39 30 9 0 0 0 0 0 0 0
0 0 0 0 0 0 0 0 0 2 0 0 150 373 251 343 410 682 804 927 622 791 1058 1044 655 79 18 11 2 12 26 7 12 13 45 116 160 203 197 89 15 0 0 0 0 0 0 0 0
0 0 0 0 0 0 0 0 0 0 0 0 0 0 170 331 513 588 886 809 1002 887 990 947 692 124 27 46 0 0 54 15 3 9 26 73 135 154 127 18 0 0 0 0 0 0 0 0 0
0 0 0 0 0 0 0 0 0 0 0 0 0 61 48 149 296 620 684 544 588 832 1036 1144 739 351 60 89 64 26 62 37 0 11 28 37 20 5 0 0 0 0 0 0 0 0 0 0 0
0 0 0 0 0 0 0 0 0 0 0 0 0 2 305 321 472 816 421 223 97 643 985 1163 901 631 269 186 172 67 51 63 39 19 12 27 23 8 0 0 0 0 0 0 0 0 0 0 0
0 0 0 0 0 0 0 0 0 0 0 0 1 23 53 523 561 786 395 98 199 315 840 1098 1019 853 550 372 326 294 105 81 70 42 39 39 23 0 0 0 0 0 0 0 0 0 0 0 0
0 0 0 0 0 0 0 0 0 0 0 0 0 32 4 227 629 785 695 246 199 345 533 900 1146 1060 821 630 509 485 407 184 149 88 74 59 38 18 0 0 0 0 0 0 0 0 0 0 0
0 0 0 0 0 0 0 0 0 0 0 0 0 5 28 0 406 798 755 744 536 421 409 542 811 1100 1023 969 831 731 657 472 203 136 101 94 55 9 0 0 0 0 0 0 0 0 0 0 0
0 0 0 0 0 0 0 0 0 0 0 0 0 0 0 0 9 581 923 1042 1004 607 201 323 463 653 809 894 1024 1034 996 820 556 281 187 199 140 60 19 0 0 0 0 0 0 0 0 0 0
0 0 0 0 0 0 0 0 0 0 0 0 0 0 0 0 0 169 867 958 926 878 309 273 304 365 562 884 1085 1213 1268 1271 1026 706 424 260 190 87 43 17 0 0 0 0 0 0 0 0 0
0 0 0 0 0 0 0 0 0 0 0 0 0 0 0 0 0 0 49 820 970 1096 693 339 178 207 269 524 713 949 1226 1268 1091 884 533 271 254 193 122 29 14 3 2 0 0 0 0 0 0
0 0 0 0 0 0 0 0 0 0 0 0 0 0 0 0 0 0 0 0 872 1199 1041 550 185 144 141 221 203 256 722 858 953 979 810 419 250 200 135 44 0 0 0 0 0 0 0 0 0
0 0 0 0 0 0 0 0 0 0 0 0 0 0 0 0 0 0 0 0 73 922 868 581 151 16 105 174 359 399 355 522 522 785 908 711 432 289 237 119 62 0 0 0 0 0 0 0 0
0 0 0 0 0 0 0 0 0 0 0 0 0 0 0 0 0 0 0 0 0 349 625 676 217 169 156 200 500 481 419 362 422 490 731 817 623 436 297 199 180 93 37 19 7 0 0 0 6
0 0 0 0 0 0 0 0 0 0 0 0 0 0 0 0 0 0 0 0 0 41 433 959 695 604 548 438 675 586 448 413 414 396 483 602 630 431 406 313 217 245 160 126 136 89 2 0 139
0 0 0 0 0 0 0 0 0 0 0 0 0 0 0 0 0 0 0 0 0 23 383 757 904 644 426 784 1317 1138 778 513 537 491 343 399 621 577 333 308 361 389 321 257 292 358 200 111 219
0 0 0 0 0 0 0 0 0 0 0 0 0 0 0 0 0 0 0 0 0 0 389 570 594 605 555 88 848 1842 1875 1169 870 513 387 362 438 635 548 337 385 555 553 558 619 541 472 434 542
0 0 0 0 0 0 0 0 0 0 0 0 0 0 0 0 0 0 0 0 0 0 165 591 762 664 326 176 251 1080 1067 1862 2026 1233 573 495 481 496 645 664 608 603 612 615 652 748 710 811 824
0 0 0 0 0 0 0 0 0 0 0 0 0 0 0 0 0 0 0 0 0 0 126 475 360 1 359 602 1140 966 1573 1819 1826 2083 1972 1633 963 688 704 809 898 807 627 671 605 560 598 733 685
0 0 0 0 0 0 0 0 0 0 0 0 0 0 0 0 0 0 0 0 0 0 11 18 0 0 0 0 436 1657 1753 1626 1543 1476 1499 1604 1501 1514 1034 910 1035 1242 1102 984 851 814 774 731 612
0 0 0 0 0 0 0 0 0 0 0 0 0 0 0 0 0 0 0 0 0 0 0 0 0 0 0 0 0 0 0 48 71 20 107 470 974 1341 1305 1222 980 993 979 785 963 1017 848 777 798
0 0 0 0 0 0 0 0 0 0 0 0 0 0 0 0 0 0 0 0 0 0 0 0 0 0 2 59 0 0 0 0 0 0 0 0 51 218 931 1208 1001 494 9 21 422 1099 1020 789 925
0 0 0 0 0 0 0 0 0 0 0 0 0 0 0 0 0 0 0 0 0 0 0 0 0 0 0 0 0 0 0 0 0 0 0 0 14 188 166 418 509 415 139 214 244 266 578 732 659
0 0 0 0 0 0 0 0 0 0 0 0 0 0 0 0 0 0 0 0 0 0 0 0 0 0 0 0 0 0 0 0 0 0 0 0 0 0 88 244 134 73 8 0 0 0 73 465 505
0 0 0 0 0 0 0 0 0 0 0 0 0 0 0 0 0 0 0 0 0 0 0 0 0 0 0 0 0 0 0 0 0 0 0 0 0 0 43 71 121 125 167 198 80 0 29 121 78
0 0 0 0 0 0 0 0 0 0 0 0 0 0 0 0 0 0 0 0 0 0 0 0 0 0 0 0 0 0 0 0 0 0 0 0 0 0 0 69 118 178 268 243 287 152 90 350 218
0 0 0 0 0 0 0 0 0 1 0 0 0 0 0 0 0 0 0 0 0 0 0 0 0 0 0 0 0 0 0 0 0 0 0 0 0 0 0 0 0 64 165 269 327 276 178 326 156
0 0 0 0 0 0 0 0 0 0 0 0 0 0 0 0 0 0 0 0 0 0 0 0 0 0 0 0 0 0 0 0 0 0 0 0 0 0 0 0 0 0 75 232 280 430 447 204 90
0 0 0 0 1 0 0 0 0 2 0 0 0 0 0 0 0 0 0 0 0 0 0 0 0 0 0 0 0 0 0 0 0 0 0 0 0 0 0 0 0 0 0 9 124 190 291 192 129
0 0 0 0 0 4 7 0 0 1 0 0 0 0 0 0 0 0 0 0 0 0 0 0 0 0 0 0 0 0 0 0 0 0 0 0 0 0 0 0 0 0 0 0 0 51 127 119 78
CIN
-0 -0 -0 -0 -0 -0 -0 -0 -0 -12 -0 -0 -10 -61 -86 -93 -80 -64 -498 -512 -520 -517 -412 -369 -427 -574 -531 -0 -0 -0 -631 -0 -0 -0 -522 -440 -363 -326 -347 -358 -352 -338 -0 -0 -0 -0 -0 -0 -0
-0 -0 -0 -0 -0 -0 -0 -0 -0 -37 -0 -0 -44 -71 -73 -99 -237 -344 -432 -531 -528 -513 -453 -410 -430 -554 -603 -578 -380 -650 -585 -631 -584 -557 -510 -397 -355 -311 -286 -317 -365 -0 -0 -0 -0 -0 -0 -0 -0
-0 -0 -0 -0 -0 -0 -0 -0 -0 -0 -0 -0 -0 -0 -92 -130 -265 -308 -411 -527 -494 -487 -452 -419 -434 -526 -572 -553 -0 -0 -534 -580 -171 -540 -496 -430 -374 -347 -344 -336 -0 -0 -0 -0 -0 -0 -0 -0 -0
-0 -0 -0 -0 -0 -0 -0 -0 -0 -0 -0 -0 -3 -67 -118 -162 -183 -281 -478 -560 -526 -492 -433 -386 -422 -464 -528 -513 -518 -566 -514 -525 -0 -536 -494 -467 -463 -132 -0 -0 -0 -0 -0 -0 -0 -0 -0 -0 -0
-0 -0 -0 -0 -0 -0 -0 -0 -0 -0 -0 -0 -0 -34 -59 -145 -207 -301 -447 -533 -530 -483 -427 -372 -377 -389 -440 -440 -441 -488 -485 -502 -482 -514 -520 -486 -493 -372 -0 -0 -0 -0 -0 -0 -0 -0 -0 -0 -0
-0 -0 -0 -0 -0 -0 -0 -0 -0 -0 -0 -0 -28 -65 -101 -142 -155 -285 -418 -506 -490 -495 -420 -377 -341 -326 -358 -379 -378 -384 -458 -460 -445 -474 -485 -473 -504 -0 -0 -0 -0 -0 -0 -0 -0 -0 -0 -0 -0
-0 -0 -0 -0 -0 -0 -0 -0 -0 -0 -0 -0 -4 -66 -22 -139 -156 -206 -305 -371 -418 -432 -435 -380 -315 -276 -276 -295 -316 -320 -332 -397 -436 -459 -461 -479 -492 -517 -0 -0 -0 -0 -0 -0 -0 -0 -0 -0 -0
-0 -0 -0 -0 -0 -0 -0 -0 -0 -0 -0 -0 -0 -30 -68 -0 -138 -186 -247 -301 -385 -408 -424 -405 -354 -274 -259 -253 -260 -266 -282 -324 -398 -425 -454 -465 -468 -496 -25 -0 -0 -0 -0 -0 -0 -0 -0 -0 -0
-0 -0 -0 -0 -0 -0 -0 -0 -0 -0 -0 -0 -0 -0 -0 -0 -18 -127 -199 -270 -306 -364 -428 -427 -402 -368 -321 -288 -239 -222 -215 -245 -298 -357 -377 -367 -379 -415 -463 -0 -0 -0 -0 -0 -0 -0 -0 -0 -0
-0 -0 -0 -0 -0 -0 -0 -0 -0 -0 -0 -0 -0 -0 -0 -0 -0 -93 -118 -139 -183 -255 -408 -451 -441 -404 -358 -295 -236 -184 -161 -142 -177 -237 -300 -345 -355 -405 -469 -526 -0 -0 -0 -0 -0 -0 -0 -0 -0
-0 -0 -0 -0 -0 -0 -0 -0 -0 -0 -0 -0 -0 -0 -0 -0 -0 -0 -13 -79 -93 -212 -353 -462 -467 -439 -400 -344 -323 -274 -193 -173 -189 -216 -297 -345 -331 -341 -379 -484 -549 -612 -494 -0 -0 -0 -0 -0 -0
-0 -0 -0 -0 -0 -0 -0 -0 -0 -0 -0 -0 -0 -0 -0 -0 -0 -0 -0 -0 -108 -174 -257 -350 -419 -421 -408 -398 -414 -401 -325 -293 -245 -212 -215 -271 -332 -345 -374 -453 -0 -0 -0 -0 -0 -0 -0 -0 -0
-0 -0 -0 -0 -0 -0 -0 -0 -0 -0 -0 -0 -0 -0 -0 -0 -0 -0 -0 -0 -139 -100 -180 -258 -393 -360 -399 -408 -381 -383 -391 -355 -328 -256 -222 -237 -267 -316 -294 -372 -417 -36 -0 -0 -0 -0 -0 -0 -0
-0 -0 -0 -0 -0 -0 -0 -0 -0 -0 -0 -0 -0 -0 -0 -0 -0 -0 -0 -0 -0 -127 -121 -195 -284 -338 -356 -344 -329 -358 -345 -343 -342 -322 -298 -255 -252 -269 -301 -333 -326 -381 -435 -300 -319 -0 -0 -0 -271
-0 -0 -0 -0 -0 -0 -0 -0 -0 -0 -0 -0 -0 -0 -0 -0 -0 -0 -0 -0 -0 -173 -133 -142 -163 -222 -218 -282 -292 -313 -338 -330 -328 -318 -321 -288 -276 -302 -282 -320 -351 -344 -369 -372 -361 -395 -397 -0 -344
-0 -0 -0 -0 -0 -0 -0 -0 -0 -0 -0 -0 -0 -0 -0 -0 -0 -0 -0 -0 -0 -85 -119 -110 -118 -190 -245 -216 -190 -191 -248 -284 -275 -299 -318 -305 -283 -283 -299 -299 -336 -321 -304 -282 -264 -256 -275 -322 -294
-0 -0 -0 -0 -0 -0 -0 -0 -0 -0 -0 -0 -0 -0 -0 -0 -0 -0 -0 -0 -0 -0 -148 -120 -123 -104 -136 -272 -153 -89 -113 -150 -200 -263 -282 -276 -272 -241 -222 -255 -289 -282 -255 -229 -185 -176 -188 -185 -195
-0 -0 -0 -0 -0 -0 -0 -0 -0 -0 -0 -0 -0 -0 -0 -0 -0 -0 -0 -0 -0 -0 -190 -152 -122 -88 -97 -172 -199 -110 -105 -60 -58 -125 -206 -235 -234 -222 -193 -178 -222 -222 -161 -198 -189 -133 -125 -107 -130
-0 -0 -0 -0 -0 -0 -0 -0 -0 -0 -0 -0 -0 -0 -0 -0 -0 -0 -0 -0 -0 -0 -167 -144 -145 -0 -153 -125 -75 -87 -65 -43 -47 -41 -42 -38 -133 -173 -166 -135 -126 -157 -147 -110 -81 -102 -98 -122 -157
-0 -0 -0 -0 -0 -0 -0 -0 -0 -0 -0 -0 -0 -0 -0 -0 -0 -0 -0 -0 -0 -0 -120 -131 -0 -0 -0 -0 -92 -58 -60 -57 -52 -48 -27 -23 -18 -40 -102 -127 -100 -82 -84 -54 -31 -43 -43 -57 -99
-0 -0 -0 -0 -0 -0 -0 -0 -0 -0 -0 -0 -0 -0 -0 -0 -0 -0 -0 -0 -0 -0 -0 -0 -0 -0 -0 -0 -0 -0 -0 -104 -79 -92 -160 -121 -81 -29 -38 -49 -95 -90 -97 -120 -58 -33 -16 -15 -48
-0 -0 -0 -0 -0 -0 -0 -0 -0 -0 -0 -0 -0 -0 -0 -0 -0 -0 -0 -0 -0 -0 -0 -0 -0 -0 -302 -316 -0 -0 -0 -0 -0 -0 -0 -0 -181 -104 -51 -49 -52 -68 -142 -163 -159 -63 -32 -68 -44
-0 -0 -0 -0 -0 -0 -0 -0 -0 -0 -0 -0 -0 -0 -0 -0 -0 -0 -0 -0 -0 -0 -0 -0 -0 -0 -0 -0 -0 -0 -0 -0 -0 -0 -0 -0 -74 -130 -116 -105 -115 -101 -182 -173 -184 -125 -45 -23 -6
-0 -0 -0 -0 -0 -0 -0 -0 -0 -0 -0 -0 -0 -0 -0 -0 -0 -0 -0 -0 -0 -0 -0 -0 -0 -0 -0 -0 -0 -0 -0 -0 -0 -0 -0 -0 -0 -0 -129 -76 -112 -139 -69 -0 -0 -0 -190 -90 -14
-0 -0 -0 -0 -0 -0 -0 -0 -0 -0 -0 -0 -0 -0 -0 -0 -0 -0 -0 -0 -0 -0 -0 -0 -0 -0 -0 -0 -0 -0 -0 -0 -0 -0 -0 -0 -0 -0 -79 -50 -33 -67 -109 -109 -117 -0 -189 -16 -59
-0 -0 -0 -0 -0 -0 -0 -0 -0 -0 -0 -0 -0 -0 -0 -0 -0 -0 -0 -0 -0 -0 -0 -0 -0 -0 -0 -0 -0 -0 -0 -0 -0 -0 -0 -0 -0 -0 -0 -34 -8 -4 -49 -39 -69 -94 -119 -76 -87
-0 -0 -0 -0 -0 -0 -0 -0 -0 -15 -64 -0 -0 -0 -0 -0 -0 -0 -0 -0 -0 -0 -0 -0 -0 -0 -0 -0 -0 -0 -0 -0 -0 -0 -0 -0 -0 -0 -0 -0 -0 -31 -17 -5 -29 -61 -92 -103 -136
-0 -0 -0 -0 -0 -0 -0 -0 -0 -0 -0 -0 -0 -0 -0 -0 -0 -0 -0 -0 -0 -0 -0 -0 -0 -0 -0 -0 -0 -0 -0 -0 -0 -0 -0 -0 -0 -0 -0 -0 -0 -0 -33 -13 -11 -16 -35 -116 -194
-0 -0 -0 -0 -7 -1 -0 -0 -0 -79 -34 -0 -0 -0 -0 -0 -0 -0 -0 -0 -0 -0 -0 -0 -0 -0 -0 -0 -0 -0 -0 -0 -0 -0 -0 -0 -0 -0 -0 -0 -0 -0 -0 -13 -23 -30 -34 -92 -145
-0 -0 -0 -0 -0 -2 -2 -0 -0 -71 -0 -0 -0 -0 -0 -0 -0 -0 -0 -0 -0 -0 -0 -0 -0 -0 -0 -0 -0 -0 -0 -0 -0 -0 -0 -0 -0 -0 -0 -0 -0 -0 -0 -0 -0 -39 -53 -80 -130
Wind_Speed
25 25 24 20 21 20 23 22 20 22 19 20 18 10 11 13 16 16 7 14 16 19 21 22 20 20 21 21 21 21 21 21 21 21 22 22 22 22 22 21 20 19 18 18 18 18 18 18 18
24 23 19 20 22 23 23 22 24 24 20 21 12 12 15 14 13 8 6 9 16 17 17 17 17 17 18 18 18 18 19 19 19 19 20 20 19 19 19 19 19 19 18 18 17 17 17 17 17
24 20 21 23 24 24 21 20 23 26 20 21 18 15 16 12 8 7 6 10 12 12 13 14 14 15 15 16 16 16 17 16 17 17 17 17 16 16 16 16 16 17 17 16 16 16 16 15 15
20 19 21 27 29 25 24 27 29 24 21 22 13 16 13 14 9 6 8 10 8 8 9 11 12 12 13 13 13 14 14 15 15 14 15 15 15 15 15 14 14 14 15 14 14 14 14 14 14
18 19 25 28 29 26 23 25 28 26 17 20 19 13 13 14 5 8 8 7 7 5 7 8 9 10 10 10 11 12 12 12 12 12 12 13 12 13 12 12 12 11 11 12 12 12 12 12 12
20 20 27 32 31 27 24 25 24 22 15 18 11 10 12 5 6 5 6 7 6 7 7 7 8 7 7 6 7 7 9 9 10 11 10 11 11 11 11 10 10 10 10 9 9 9 10 10 10
22 22 28 30 31 30 25 24 25 23 18 18 9 10 10 6 3 6 6 9 9 7 6 6 5 5 5 5 5 5 6 6 8 9 9 9 9 9 9 9 9 9 8 8 8 8 7 8 8
25 25 30 29 29 31 23 26 27 27 23 11 12 11 7 10 1 2 4 6 8 5 3 4 5 4 3 3 4 4 5 6 6 7 7 6 7 7 6 6 5 4 4 5 5 5 5 5 6
24 31 35 35 30 30 28 28 27 26 18 16 12 7 7 7 7 2 7 4 3 4 0 2 3 4 4 3 3 3 4 5 6 6 5 3 2 2 2 1 1 1 0 1 1 2 3 5 7
28 35 35 30 32 36 34 33 24 21 17 15 10 7 8 10 10 3 6 8 6 3 3 4 3 4 4 4 3 3 3 4 5 6 6 6 6 5 5 5 4 4 5 5 6 7 5 8 10
27 37 34 37 35 32 33 34 28 24 24 17 18 12 14 14 16 16 7 9 8 8 7 5 6 6 5 5 6 6 5 6 7 8 8 9 9 9 10 11 10 10 10 9 9 11 11 9 9
30 30 32 35 34 31 34 30 28 24 22 18 19 21 18 18 20 20 18 12 10 10 10 8 7 6 6 5 6 7 6 6 8 9 10 12 12 12 14 16 13 12 12 12 13 12 12 13 16
26 31 32 33 35 33 34 34 33 27 25 26 25 26 27 23 22 21 17 15 8 9 10 11 10 9 8 8 6 7 7 6 8 10 12 12 16 16 17 18 16 15 15 14 14 14 15 15 16
22 25 32 35 36 32 31 34 30 31 28 31 29 29 31 31 27 27 22 18 12 7 8 11 11 10 9 9 9 8 10 8 11 12 14 14 16 17 17 18 18 18 16 15 17 16 17 18 18
28 33 32 32 33 34 26 35 31 30 30 34 37 35 31 30 26 26 29 21 16 13 10 10 12 11 11 13 13 14 14 13 14 16 14 17 17 18 19 20 19 18 18 18 18 18 18 17 18
27 23 30 27 23 23 24 41 36 33 34 32 32 32 32 28 23 24 25 29 16 13 10 10 11 12 12 14 15 16 16 15 16 17 17 16 16 17 19 20 20 21 21 20 17 18 19 22 23
23 28 30 30 26 26 27 38 36 33 31 31 31 33 30 28 25 25 26 26 16 11 10 11 12 13 13 17 19 22 21 20 19 19 20 20 19 20 21 22 22 21 20 20 21 22 22 23 25
27 28 27 26 24 27 34 38 41 33 29 28 32 34 27 23 24 22 20 17 11 10 10 10 11 12 19 21 20 22 25 24 25 25 25 26 25 24 24 25 25 24 23 23 25 26 26 28 29
27 30 32 34 32 27 27 29 33 28 25 26 24 23 19 18 21 23 23 16 15 13 13 12 12 13 15 17 20 22 23 25 28 29 29 29 27 27 27 29 29 27 26 28 29 29 29 29 27
28 32 35 34 34 26 30 33 29 25 23 22 21 20 21 24 25 24 22 14 13 13 14 13 13 13 16 17 19 23 27 29 31 33 35 31 30 31 27 27 29 30 29 32 34 32 32 33 29
32 31 29 31 33 27 31 34 32 30 26 25 24 23 25 25 27 26 23 21 17 16 15 12 10 10 11 13 16 19 24 27 30 34 35 32 33 38 35 30 28 31 29 32 40 39 39 42 37
39 32 31 32 33 37 27 40 33 30 33 30 34 38 39 39 30 26 23 20 16 13 12 12 12 13 16 18 19 23 25 30 30 33 35 38 35 37 37 35 32 35 46 39 36 36 35 35 36
27 26 26 26 29 32 33 37 34 33 41 43 43 44 44 42 28 22 17 14 10 7 7 8 9 12 15 18 22 24 26 29 32 36 38 37 35 34 35 37 35 33 32 32 33 39 44 41 41
25 22 24 24 27 37 33 34 37 36 35 38 36 30 33 26 17 9 5 4 4 5 5 7 8 11 13 17 21 26 29 33 35 37 39 40 38 36 36 36 35 35 34 34 38 37 38 43 35
23 24 29 31 30 34 28 35 30 27 26 28 23 20 20 16 8 3 3 4 5 7 9 10 12 15 15 17 21 25 29 33 36 36 38 40 40 38 35 35 37 36 35 35 36 38 40 38 25
22 22 28 35 35 36 30 32 26 20 24 26 19 20 12 10 8 7 7 7 8 10 11 13 15 16 17 19 23 27 28 30 33 35 36 38 39 38 37 35 34 35 35 37 34 33 32 33 29
25 26 21 29 31 35 32 32 33 26 24 20 15 14 15 12 12 11 11 12 12 13 15 17 19 22 22 24 27 29 29 30 33 35 37 38 38 39 39 40 39 38 38 38 36 35 35 33 31
23 21 30 28 37 40 34 32 28 22 19 17 18 19 21 20 20 21 20 17 17 18 20 23 25 28 29 30 30 31 33 34 35 35 36 37 37 38 40 40 41 42 41 39 38 37 36 35 34
25 24 24 25 27 35 39 32 19 17 17 18 22 27 29 27 29 27 26 24 25 26 28 30 32 33 32 30 31 33 35 35 35 37 37 37 36 37 38 39 40 41 41 41 40 39 37 38 36
22 23 22 26 29 28 33 37 23 21 28 33 34 29 28 29 31 31 33 36 37 40 41 40 36 34 31 29 30 32 33 33 35 36 37 36 39 38 38 38 39 40 42 43 42 41 39 37 35
Wind_Direction
276 277 280 272 257 259 254 259 277 281 293 288 316 332 349 332 294 296 22 101 105 110 115 117 109 105 102 100 98 96 94 94 93 92 93 93 93 92 91 91 90 87 85 83 81 79 77 77 72
279 280 279 257 252 251 256 264 258 278 285 275 337 323 306 319 330 24 58 80 109 110 113 113 112 106 103 101 100 98 96 97 95 94 95 96 95 92 90 90 90 91 91 87 83 81 79 81 78
277 278 265 250 248 250 257 259 276 271 281 285 307 311 289 312 19 24 41 94 101 106 112 115 114 112 110 106 104 103 100 98 98 98 97 95 94 93 91 90 91 92 92 88 86 86 86 84 82
275 271 265 246 241 253 253 262 275 267 285 295 312 314 311 302 312 346 88 95 97 103 110 117 119 117 116 112 108 108 107 104 104 101 99 99 98 99 96 94 93 93 95 93 90 89 87 85 85
271 266 254 248 248 255 266 278 290 278 286 295 293 302 299 291 8 87 90 95 104 112 119 124 126 123 120 117 116 114 113 110 108 107 107 106 104 103 98 95 93 92 91 90 89 87 86 85 83
261 263 254 247 249 258 268 277 293 289 294 291 327 320 312 43 58 68 74 86 97 122 132 134 136 134 130 124 122 121 121 122 119 116 114 115 115 115 114 111 108 105 102 97 91 88 86 82 78
258 259 256 255 256 261 262 284 289 295 301 297 307 317 316 325 56 94 73 83 90 99 123 131 139 144 142 141 141 139 135 134 132 130 127 126 124 125 126 126 124 119 111 108 106 97 87 77 69
259 262 257 258 259 259 270 283 292 293 292 309 303 304 313 315 290 335 52 79 88 80 104 135 143 156 171 176 164 162 159 158 158 155 147 144 144 143 143 137 131 121 112 107 104 96 78 66 58
259 257 254 253 259 260 276 283 294 294 289 289 304 318 322 343 30 353 300 310 320 316 296 172 196 209 178 196 213 210 201 194 186 184 182 187 230 207 229 235 223 217 321 12 29 30 30 1 360
254 254 257 259 261 260 272 281 292 296 298 289 297 307 321 327 336 343 284 280 274 246 226 222 199 203 218 252 239 244 220 232 240 241 239 257 264 259 264 270 263 273 290 301 307 314 328 328 331
260 256 260 260 262 265 270 273 281 283 280 291 282 292 301 306 306 316 306 269 230 253 260 222 194 187 192 255 266 269 258 259 251 245 245 257 267 275 279 282 283 285 289 295 296 301 305 310 315
263 266 265 266 268 274 272 281 281 283 283 289 291 290 297 302 300 300 306 317 251 252 250 239 224 205 221 245 233 248 246 246 260 253 256 266 269 269 277 282 279 277 282 284 290 292 296 300 303
266 266 267 267 267 271 273 278 278 280 285 286 290 287 284 293 295 299 301 309 298 259 243 224 225 219 230 253 264 260 259 248 263 262 261 259 271 274 278 278 279 276 280 280 285 288 292 296 300
274 271 268 268 270 274 276 278 281 277 284 284 286 287 282 284 289 287 290 292 287 269 251 237 231 231 252 256 265 257 270 266 280 276 266 262 270 273 273 275 276 278 277 279 284 285 289 293 295
276 271 276 278 275 272 281 277 278 283 285 283 281 282 284 285 287 288 280 284 278 272 258 234 231 237 251 270 271 275 278 275 280 280 276 271 270 272 273 276 275 274 276 281 287 289 290 289 290
277 282 275 284 285 286 281 274 280 281 283 284 283 282 283 284 284 292 284 280 275 267 249 241 254 249 261 277 284 280 281 277 281 281 281 274 271 274 277 279 277 281 281 281 280 285 288 290 291
277 273 277 281 281 283 282 281 283 278 281 283 281 284 283 282 281 286 282 282 278 253 247 254 258 261 264 281 284 284 283 283 285 283 280 279 278 281 280 283 280 278 276 277 280 284 286 288 289
268 273 276 278 290 292 286 283 284 280 279 281 285 286 282 275 274 283 286 287 272 253 251 249 257 267 286 284 284 285 289 286 289 287 285 285 284 280 280 282 283 282 281 278 280 283 287 287 288
274 273 274 276 285 295 294 294 304 288 276 282 289 289 288 276 280 286 290 279 272 263 256 253 261 275 290 294 289 287 288 291 292 294 296 291 289 283 279 281 282 283 281 282 283 283 280 280 285
272 273 274 280 286 291 293 291 299 304 293 284 290 289 288 286 285 284 285 275 252 259 253 255 261 273 290 299 302 298 295 294 294 295 296 296 293 290 285 280 279 282 284 288 286 283 284 284 281
273 275 280 282 286 296 295 288 290 292 299 296 294 297 294 290 285 282 278 275 264 264 265 262 268 286 299 309 313 310 305 299 296 295 298 304 301 292 291 288 285 282 282 287 287 286 285 286 286
272 274 282 283 285 283 296 284 288 293 292 296 296 293 291 291 289 284 273 271 263 264 268 273 282 291 298 300 305 305 303 301 301 301 299 298 301 300 297 292 288 287 286 286 284 280 280 281 281
295 285 286 291 290 289 288 287 287 296 290 289 292 290 287 286 292 277 271 260 252 251 276 293 300 302 306 305 302 306 309 309 308 306 304 303 303 303 302 299 296 291 287 283 283 281 283 282 284
297 295 295 297 291 281 288 289 289 295 298 299 301 305 302 305 298 282 256 226 251 278 293 307 312 312 315 314 312 308 308 308 308 308 306 304 306 307 304 302 300 295 293 286 288 285 280 284 285
306 300 289 288 287 287 298 292 295 303 312 313 316 318 328 338 339 314 256 266 280 292 298 303 309 307 315 317 317 316 314 312 310 310 310 306 305 306 306 305 303 300 296 292 288 284 280 286 285
301 300 289 285 285 287 298 290 299 313 318 316 317 320 340 344 352 340 323 308 301 303 306 307 310 309 310 311 311 312 314 316 314 313 312 310 308 307 307 306 304 303 301 296 290 287 278 282 284
293 295 304 294 294 290 294 295 299 302 310 319 325 331 338 337 337 335 326 318 314 308 307 308 308 308 306 306 306 306 309 312 312 312 312 309 309 308 307 304 303 302 300 296 292 286 283 281 280
299 302 291 297 290 288 293 296 299 310 321 322 315 314 316 314 314 309 307 309 310 311 309 308 307 306 304 303 305 304 305 306 308 309 310 310 311 310 307 304 303 301 301 298 294 290 286 283 280
302 299 302 299 293 290 290 295 315 314 322 323 313 302 299 300 299 304 308 306 302 305 305 305 304 304 305 302 303 303 304 305 305 305 306 307 308 310 309 308 303 301 300 300 297 292 290 286 283
306 305 306 295 294 296 294 291 309 314 312 309 307 310 306 296 294 292 299 295 297 297 298 299 302 303 304 304 304 303 304 304 304 305 306 306 303 305 305 307 306 301 298 298 295 293 290 288 284